This demonstration page uses our WeatherBlox Daily Observations layout. Learn more.

Left ArrowRight Arrow

36.17497, -115.13722

Hourly Observations for August 3, 2016

Temp ( °F °C ) Dew Point ( °F °C ) Humidity (%) Winds ( mph kmh ) Pressure ( in mb ) Visibility ( mi km ) Precip ( " mm )
12:53 am 00:53 Clear 91 32.8 60 15.6 35 35 SE 10 17 29.87 1011 10 16.0934 0 0
1:53 am 01:53 Clear 90 32.2 61 16.1 38 38 SSE 12 19 29.86 1011 10 16.0934 0 0
2:53 am 02:53 Clear 89 31.7 62 16.7 41 41 SSE 10 17 29.86 1011 10 16.0934 0 0
3:53 am 03:53 Clear 87 30.6 63 17.2 45 45 ESE 8 13 29.87 1012 10 16.0934 0 0
4:53 am 04:53 Clear 86 30 63 17.2 46 46 ESE 9 15 29.88 1012 10 16.0934 0 0
5:53 am 05:53 Sunny 85 29.4 63 17.2 48 48 ESE 10 17 29.89 1012 10 16.0934 0 0
6:53 am 06:53 Sunny 86 30 64 17.8 48 48 ESE 12 19 29.92 1013 10 16.0934 0 0
7:53 am 07:53 Sunny 87 30.6 64 17.8 46 46 ESE 13 20 29.93 1014 10 16.0934 0 0
8:53 am 08:53 Sunny 90 32.2 63 17.2 41 41 ESE 12 19 29.94 1014 10 16.0934 0 0
9:53 am 09:53 Sunny 93 33.9 63 17.2 37 37 E 13 20 29.93 1013 10 16.0934 0 0
10:53 am 10:53 Sunny 94 34.4 62 16.7 35 35 SE 8 13 29.92 1013 10 16.0934 0 0
11:53 am 11:53 Sunny 96 35.6 62 16.7 32 32 VRB 6 9 29.91 1013 10 16.0934 0 0
12:53 pm 12:53 Sunny 98 36.7 60 15.6 28 28 SSW 7 11 29.88 1012 10 16.0934 0 0
1:53 pm 13:53 Sunny 101 38.3 59 15 25 25 ESE 7 11 29.83 1010 10 16.0934 0 0
2:53 pm 14:53 Sunny 101 38.3 58 14.4 24 24 S 10 17 29.8 1009 10 16.0934 0 0
3:53 pm 15:53 Sunny 103 39.4 58 14.4 23 23 ESE 14 22 29.78 1009 10 16.0934 0 0
4:53 pm 16:53 Sunny 103 39.4 58 14.4 23 23 SSE 17 28 29.77 1008 10 16.0934 0 0
5:53 pm 17:53 Sunny 102 38.9 58 14.4 23 23 SSW 15 24 29.75 1007 10 16.0934 0 0
6:53 pm 18:53 Mostly Cloudy 97 36.1 59 15 28 28 SSW 14 22 29.76 1008 10 16.0934 0 0
7:53 pm 19:53 Clear 96 35.6 59 15 29 29 SSE 14 22 29.78 1009 10 16.0934 0 0
8:53 pm 20:53 Clear 96 35.6 58 14.4 28 28 S 8 13 29.8 1009 10 16.0934 0 0
9:40 pm 21:40 Mostly Cloudy 85 29.4 62 16.7 46 46 ENE 30 48 29.77 1008 7 11.26538 0 0
9:53 pm 21:53 Partly Cloudy 83 28.3 62 16.7 49 49 ENE 32 52 29.88 1012 10 16.0934 0 0
10:53 pm 22:53 Mostly Clear 80 26.7 65 18.3 60 60 E 18 30 29.93 1014 10 16.0934 0 0
11:53 pm 23:53 Partly Cloudy 81 27.2 63 17.2 54 54 SSE 17 28 29.96 1015 10 16.0934 0 0

Powered by AerisWeather